Flag for Germany Weather past 2 weeks in Stuttgart, Baden-Württemberg, Germany

48 °F

Light rain. Partly cloudy.

Feels Like: 42 °F
Forecast: 45 / 52 °F
Wind: 17 mph from Southwest

Location: Stuttgart-Echterdingen

Current Time: Nov 30, 2015 at 5:30:38 AM

Latest Report: Nov 30, 2015 at 4:20 AM

Visibility: N/A

Pressure: 30.15 "Hg

Humidity: 82%

Dew point: 43 °F

Location of StuttgartLocation

Historic Weather in Stuttgart — Graph


Stuttgart temperature yesterday

Maximum temperature yesterday: 48 °F (at 7:20 PM)
Minimum temperature yesterday: 37 °F (at 12:20 AM)
Average temperature yesterday: 43 °F

Past Weeks' High & Low Weather Summary

High68 °F (Nov 16, 1:20 PM)100% (Nov 20, 7:50 AM)30.27 "Hg (Nov 20, 7:50 AM)
Low23 °F (Nov 24, 2:20 AM)23% (Nov 16, 1:20 PM)29.36 "Hg (Nov 21, 2:50 PM)
Average43 °F81%29.96 "Hg
* Reported Nov 15 3:20 AM — Nov 30 3:50 AM, Stuttgart, Weather by CustomWeather, © 2015

Note: Actual official high and low records may vary slightly from our data, if they occured in-between our weather recording intervals... More about our weather records


Stuttgart weather history for previous 24 hours

Time TempWeatherWind HumidityBarometerVisibility
3:50 AM
Mon, Nov 30
48 °FPartly cloudy.21 mph82%30.15 "HgN/A
3:20 AM48 °FPartly cloudy.17 mph76%30.15 "HgN/A
2:50 AM48 °FPassing clouds.16 mph76%30.12 "HgN/A
2:20 AM48 °FPartly cloudy.14 mph76%30.12 "HgN/A
1:20 AM48 °FPartly cloudy.15 mph76%30.12 "HgN/A
12:50 AM48 °FPartly cloudy.17 mph76%30.12 "HgN/A
11:50 PM
Sun, Nov 29
48 °FLight rain. Passing clouds.14 mph76%30.12 "HgN/A
11:20 PM48 °FPartly cloudy.18 mph76%30.12 "HgN/A
10:50 PM48 °FPartly cloudy.20 mph76%30.12 "HgN/A
10:20 PM48 °FPassing clouds.18 mph76%30.09 "HgN/A
9:50 PM48 °FPassing clouds.18 mph76%30.09 "HgN/A
9:20 PM48 °FPartly cloudy.17 mph82%30.09 "HgN/A
8:50 PM48 °FPartly cloudy.18 mph76%30.09 "HgN/A
8:20 PM48 °FPartly cloudy.18 mph76%30.09 "HgN/A
7:50 PM48 °FPartly cloudy.16 mph76%30.09 "HgN/A
7:20 PM48 °FLight rain. Partly cloudy.16 mph76%30.09 "HgN/A
6:50 PM46 °FPartly cloudy.14 mph82%30.09 "HgN/A
6:20 PM46 °FPartly cloudy.14 mph82%30.09 "HgN/A
5:50 PM46 °FPartly cloudy.17 mph82%30.09 "HgN/A
5:20 PM46 °FPartly cloudy.17 mph82%30.07 "HgN/A
4:50 PM46 °FLight rain. Partly cloudy.15 mph82%30.07 "HgN/A
4:20 PM46 °FBroken clouds.15 mph82%30.09 "HgN/A
3:50 PM46 °FBroken clouds.16 mph82%30.07 "HgN/A
3:20 PM45 °FPartly sunny.15 mph87%30.07 "HgN/A
2:50 PM45 °FPartly sunny.16 mph87%30.07 "HgN/A
2:20 PM45 °FPartly sunny.15 mph87%30.07 "HgN/A
1:50 PM45 °FLight rain. Partly sunny.15 mph87%30.07 "HgN/A
1:20 PM45 °FLight rain. Partly sunny.14 mph87%30.07 "HgN/A
12:50 PM45 °FLight rain. Broken clouds.14 mph81%30.07 "HgN/A
12:20 PM43 °FBroken clouds.16 mph87%30.07 "HgN/A
11:50 AM43 °FLight rain. Broken clouds.15 mph81%30.07 "HgN/A
11:20 AM41 °FBroken clouds.16 mph87%30.07 "HgN/A
10:20 AM39 °FBroken clouds.17 mph87%30.07 "HgN/A
9:50 AM39 °FLight rain. Partly sunny.15 mph87%30.07 "HgN/A
9:20 AM39 °FLight rain. Partly sunny.15 mph87%30.07 "HgN/A
7:50 AM41 °FLight rain. Partly cloudy.13 mph76%30.07 "HgN/A
7:20 AM41 °FLight rain. Passing clouds.14 mph76%30.04 "HgN/A
6:20 AM39 °FPassing clouds.12 mph75%30.04 "HgN/A
5:20 AM39 °FPartly cloudy.12 mph70%30.07 "HgN/A
Weather by CustomWeather, © 2015

See weather overviewHow to use our weather pages